Hourly Data Report for April 12, 2004

TORONTO CITY
ONTARIO

43°40'00.000" N
79°24'00.000" W
112.50 m
6158355
71508
XTO

Download Data

Hourly Data (April 2004)
Hourly Data Report for April 12, 2004
TIME
LST
Temp Definition
°C
Dew Point Definition
°C
Rel Hum Definition
%
Precip. Amount Definition
mm

Wind Dir Definition
10's deg

Wind Spd Definition
km/h
Visibility Definition
km
Stn Press Definition
kPa
Hmdx Definition


Wind Chill Definition


Weather Definition


00:00 4.0 -5.1 51   LegendMM LegendMM LegendMM 101.00     LegendNANA
01:00 2.8 -4.7 58   LegendMM LegendMM LegendMM 101.02     LegendNANA
02:00 2.2 -5.1 58   LegendMM LegendMM LegendMM 101.04     LegendNANA
03:00 1.6 -5.2 61   LegendMM LegendMM LegendMM 101.05     LegendNANA
04:00 1.4 -5.0 62   LegendMM LegendMM LegendMM 101.04     LegendNANA
05:00 1.5 -4.7 63   LegendMM LegendMM LegendMM 101.07     LegendNANA
06:00 1.4 -5.0 62   LegendMM LegendMM LegendMM 101.18     LegendNANA
07:00 2.3 -5.2 58   LegendMM LegendMM LegendMM 101.20     LegendNANA
08:00 4.1 -5.7 49   LegendMM LegendMM LegendMM 101.22     LegendNANA
09:00 6.0 -7.3 38   LegendMM LegendMM LegendMM 101.21     LegendNANA
10:00 7.3 -6.9 36   LegendMM LegendMM LegendMM 101.18     LegendNANA
11:00 7.0 -6.4 38   LegendMM LegendMM LegendMM 101.11     LegendNANA
12:00 7.6 -4.9 41   LegendMM LegendMM LegendMM 101.04     LegendNANA
13:00 7.4 -6.4 37   LegendMM LegendMM LegendMM 101.04     LegendNANA
14:00 7.3 -6.5 37   LegendMM LegendMM LegendMM 100.98     LegendNANA
15:00 7.0 -7.1 36   LegendMM LegendMM LegendMM 100.90     LegendNANA
16:00 6.9 -6.5 38   LegendMM LegendMM LegendMM 100.84     LegendNANA
17:00 6.7 -7.4 36   LegendMM LegendMM LegendMM 100.76     LegendNANA
18:00 7.1 -7.0 36   LegendMM LegendMM LegendMM 100.71     LegendNANA
19:00 7.7 -6.5 36   LegendMM LegendMM LegendMM 100.68     LegendNANA
20:00 8.0 -5.9 37   LegendMM LegendMM LegendMM 100.70     LegendNANA
21:00 6.5 -1.0 59   LegendMM LegendMM LegendMM 100.74     LegendNANA
22:00 5.0 2.4 83   LegendMM LegendMM LegendMM 100.67     LegendNANA
23:00 4.0 2.5 90   LegendMM LegendMM LegendMM 100.60     LegendNANA

Notes on Data Quality.

Legend

  • E = Estimated
  • M = Missing
  • NA = Not Available*
  • [empty] = Indicates an unobserved value
Date modified: